Weather History for Mobile, AL

Change the Weather History Date:

Friday, August 2, 2013

  Actual Average Record
Temperature  
Mean Temperature 83 °F 82 °F  
Max Temperature 93 °F 91 °F 101 °F (2010)
Min Temperature 72 °F 73 °F 68 °F (1984)
Cooling Degree Days 18 17  
Month to date cooling degree days 36 34  
Year to date cooling degree days 1368 1445  
Since 1 June cooling degree days 1004 1000  
Growing Degree Days 32 (Base 50)    
Moisture  
Dew Point 71 °F    
Average Humidity 70    
Maximum Humidity 93    
Minimum Humidity 47    
Precipitation  
Precipitation 0.00 in 0.27 in 3.25 in (1984)
Month to date precipitation 0.95 0.53  
Year to date precipitation 42.70 40.73  
Sea Level Pressure  
Sea Level Pressure 29.98 in    
Wind  
Wind Speed 2 mph (NNE)    
Max Wind Speed 9 mph    
Max Gust Speed 12 mph    
Visibility 9 miles    
Events      
T = Trace of Precipitation, MM = Missing Value Source: NWS Daily Summary

Daily Weather History Graph

Daily Weather History Graph

Search for Another Location

Airport:

Trip Planner

Search our weather history database for the weather conditions in past years. The results will help you decide how hot, cold, wet, or windy it might be!

Date:

Astronomy

Aug. 02, 2013 Rise Set
Actual Time 6:11 AM CDT 7:46 PM CDT
Civil Twilight 5:45 AM CDT 8:12 PM CDT
Nautical Twilight 5:14 AM CDT 8:43 PM CDT
Astronomical Twilight 4:41 AM CDT 9:16 PM CDT
Moon 2:35 AM CDT (8/2) 4:41 PM CDT (8/2)
Length of Visible Light 14h 27m
Length of Day
13h 34m
Waning Crescent, 15% of the Moon is Illuminated
Aug 2
Waning Crescent
Aug 6
New
Aug 14
First Quarter
Aug 20
Full
Aug 28
Last Quarter

Hourly Weather History & Observations

Time (CDT) Temp. Heat Index Dew Point Humidity Pressure Visibility Wind Dir Wind Speed Gust Speed Precip Events Conditions
12:56 AM 73.0 °F - 71.1 °F 93% 29.96 in 10.0 mi Calm Calm - N/A   Clear
1:56 AM 72.0 °F - 70.0 °F 93% 29.94 in 8.0 mi Calm Calm - N/A   Clear
2:56 AM 72.0 °F - 70.0 °F 93% 29.93 in 9.0 mi NNW 4.6 mph - N/A   Clear
3:56 AM 72.0 °F - 70.0 °F 93% 29.95 in 10.0 mi Calm Calm - N/A   Clear
4:56 AM 73.0 °F - 70.0 °F 90% 29.96 in 10.0 mi Calm Calm - N/A   Clear
5:56 AM 72.0 °F - 70.0 °F 93% 29.97 in 7.0 mi Calm Calm - 0.01 in   Partly Cloudy
6:56 AM 73.0 °F - 71.1 °F 93% 29.98 in 7.0 mi Calm Calm - N/A   Partly Cloudy
7:56 AM 78.1 °F - 73.0 °F 84% 29.99 in 7.0 mi North 3.5 mph - N/A   Partly Cloudy
8:56 AM 81.0 °F 86.2 °F 73.9 °F 79% 29.99 in 7.0 mi NE 5.8 mph - N/A   Mostly Cloudy
9:56 AM 84.0 °F 91.2 °F 73.9 °F 72% 30.01 in 10.0 mi NNE 3.5 mph - N/A   Mostly Cloudy
10:56 AM 87.1 °F 95.4 °F 73.9 °F 65% 30.01 in 10.0 mi East 6.9 mph - N/A   Mostly Cloudy
11:56 AM 89.1 °F 97.0 °F 73.0 °F 59% 30.01 in 10.0 mi East 3.5 mph - N/A   Mostly Cloudy
12:56 PM 91.0 °F 96.6 °F 70.0 °F 50% 30.01 in 10.0 mi Variable 3.5 mph - N/A   Mostly Cloudy
1:56 PM 91.0 °F 96.6 °F 70.0 °F 50% 29.99 in 10.0 mi ENE 4.6 mph - N/A   Mostly Cloudy
2:56 PM 91.9 °F 96.9 °F 69.1 °F 47% 29.98 in 10.0 mi Calm Calm - N/A   Partly Cloudy
3:56 PM 91.9 °F 96.9 °F 69.1 °F 47% 29.97 in 10.0 mi NNW 3.5 mph - N/A   Partly Cloudy
4:56 PM 91.9 °F 95.9 °F 68.0 °F 45% 29.96 in 10.0 mi WNW 4.6 mph - N/A   Partly Cloudy
5:56 PM 91.9 °F 95.9 °F 68.0 °F 45% 29.96 in 10.0 mi North 4.6 mph - N/A   Partly Cloudy
6:56 PM 90.0 °F 93.6 °F 68.0 °F 48% 29.97 in 10.0 mi Calm Calm - N/A   Partly Cloudy
7:56 PM 82.0 °F 88.6 °F 75.0 °F 79% 29.99 in 10.0 mi SSW 5.8 mph - N/A   Clear
8:56 PM 81.0 °F 86.7 °F 75.0 °F 82% 30.00 in 10.0 mi Calm Calm - N/A   Clear
9:56 PM 80.1 °F 85.1 °F 75.0 °F 85% 30.02 in 10.0 mi Variable 3.5 mph - N/A   Clear
10:56 PM 78.1 °F - 73.9 °F 87% 30.03 in 9.0 mi Calm Calm - N/A   Clear
11:56 PM 77.0 °F - 73.9 °F 90% 30.03 in 8.0 mi Calm Calm - N/A   Clear